This is the latest recevied weather packets stored in our database for station/object N1ORT. If no packets are shown the sender has not sent any weather packets the latest 10 day(s).
| Time | Temp. | Humidity | Pressure | Rain* | Wind** | Luminosity | Snow |
|---|---|---|---|---|---|---|---|
| 1777393290 | 14.44° C | 51% | 1021.1 hPa | 0 mm | - | 949 W/m² | - |
| 1777392987 | 15° C | 49% | 1021.2 hPa | 0 mm | - | 947 W/m² | - |
| 1777392682 | 15.56° C | 48% | 1021.1 hPa | 0 mm | - | 945 W/m² | - |
| 1777392379 | 15° C | 50% | 1021.3 hPa | 0 mm | - | 945 W/m² | - |
| 1777392074 | 14.44° C | 51% | 1021.3 hPa | 0 mm | - | 942 W/m² | - |
| 1777391769 | 15° C | 48% | 1021.4 hPa | 0 mm | - | 938 W/m² | - |
| 1777391466 | 15.56° C | 46% | 1021.3 hPa | 0 mm | - | 936 W/m² | - |
| 1777391162 | 15.56° C | 46% | 1021.4 hPa | 0 mm | - | 933 W/m² | - |
| 1777390858 | 15.56° C | 46% | 1021.6 hPa | 0 mm | - | 928 W/m² | - |
| 1777390556 | 15° C | 46% | 1021.5 hPa | 0 mm | - | 923 W/m² | - |
| 1777390252 | 14.44° C | 46% | 1021.5 hPa | 0 mm | - | 918 W/m² | - |
| 1777389947 | 15° C | 47% | 1021.5 hPa | 0 mm | - | 913 W/m² | - |
| 1777389645 | 14.44° C | 48% | 1021.7 hPa | 0 mm | - | 908 W/m² | - |
| 1777389341 | 14.44° C | 46% | 1021.6 hPa | 0 mm | - | 902 W/m² | - |
| 1777389039 | 14.44° C | 47% | 1021.7 hPa | 0 mm | - | 891 W/m² | - |
| 1777388736 | 15° C | 46% | 1021.7 hPa | 0 mm | - | 883 W/m² | - |
| 1777388433 | 15° C | 47% | 1021.8 hPa | 0 mm | - | 878 W/m² | - |
| 1777388131 | 14.44° C | 47% | 1021.8 hPa | 0 mm | - | 868 W/m² | - |
| 1777387828 | 15° C | 49% | 1021.7 hPa | 0 mm | - | 860 W/m² | - |
| 1777387525 | 15° C | 50% | 1021.6 hPa | 0 mm | - | 848 W/m² | - |
| 1777387220 | 14.44° C | 53% | 1021.5 hPa | 0 mm | - | 838 W/m² | - |
| 1777386915 | 14.44° C | 51% | 1021.5 hPa | 0 mm | - | 827 W/m² | - |
| 1777386613 | 14.44° C | 55% | 1021.5 hPa | 0 mm | - | 820 W/m² | - |
| 1777386310 | 13.89° C | 54% | 1021.5 hPa | 0 mm | - | 809 W/m² | - |
| 1777386008 | 14.44° C | 53% | 1021.5 hPa | 0 mm | - | 801 W/m² | - |
* Rain latest hour (hover to see other rain measurements)
** Current wind speed in m/s (hover to see current wind gust speed)